#timestamp,LO_Frequency,Hit,StdDev 
1569340815.2,286046998.4,N
1569340835.1,286046996.8,N
1569340836.0,286046996.8,N
1569340855.8,286046997.0,N
1569340875.7,286046996.6,N
1569340895.5,286046999.4,N
1569340915.3,286046998.4,N
1569340935.2,286046998.7,N
1569340955.0,286046998.7,N
1569340955.9,286046998.7,N
1569340975.8,286046998.4,N
1569340995.6,286046998.6,N
1569341015.4,286046999.0,N
1569341035.3,286046999.2,N
1569341055.1,286046997.5,N
1569341075.8,286046996.9,N
1569341095.7,286046999.1,N
1569341115.5,286046999.1,N
1569341135.4,286046999.2,N
1569341155.2,286046996.5,Y
1569341175.0,286047001.1,P
1569341175.9,286047001.1,N
1569341195.8,286047000.0,N
1569341215.6,286047000.8,N
1569341235.5,286046999.1,N
1569341255.3,286046997.8,N
1569341275.1,286046997.9,N
1569341295.9,286046997.7,N
1569341315.7,286046997.7,N
1569341335.5,286046999.6,N
1569341355.4,286046999.6,N
1569341375.2,286046999.1,N
1569341395.1,286046999.0,N
1569341396.0,286046999.0,N
1569341415.8,286046998.4,N
1569341435.6,286046998.4,N
1569341455.5,286047001.2,N
1569341475.3,286047000.3,N
1569341495.1,286047000.4,N
1569341515.9,286047000.6,N
1569341535.7,286047001.2,N
1569341555.6,286047000.8,N
1569341575.4,286046999.0,N
1569341595.2,286046996.7,N
1569341615.1,286046995.0,Y
1569341616.0,286046995.0,P
1569341635.8,286046996.7,N
1569341655.7,286046999.1,N
1569341675.5,286046998.2,N
1569341695.3,286047000.0,N
1569341715.2,286047002.7,N
1569341735.0,286046999.8,N
1569341735.9,286046999.8,N
1569341755.8,286047000.8,N
1569341775.6,286046998.1,N
1569341795.4,286047002.3,N
1569341815.3,286047002.7,N
1569341835.1,286047001.1,N
1569341855.8,286047000.0,N
1569341875.7,286047000.5,N
1569341895.5,286047001.2,N
1569341915.4,286047000.9,N
1569341935.2,286046998.5,N
1569341955.0,286046998.8,N
1569341955.9,286046998.8,N
1569341975.8,286046998.8,N
1569341995.6,286046998.8,N
1569342015.5,286046996.9,N
1569342035.3,286046998.9,N
1569342055.1,286047000.8,N
1569342075.9,286047000.0,N
1569342095.7,286047001.0,N
1569342115.5,286047001.2,N
1569342135.4,286047001.0,N
1569342155.2,286047000.9,N
1569342175.1,286046999.3,N
1569342176.0,286046999.3,N
1569342195.8,286046999.5,N
1569342215.6,286047000.3,N
1569342235.5,286047000.2,N
1569342255.3,286047002.6,N
1569342275.2,286047002.4,N
1569342295.9,286047000.5,N
1569342315.7,286047001.1,N
1569342335.6,286046998.5,N
1569342355.4,286047000.7,N
1569342375.2,286047000.3,N
1569342395.1,286047001.2,N
1569342396.0,286047001.2,N
1569342415.8,286046999.6,N
1569342435.7,286046999.1,N
1569342455.5,286046999.3,N
1569342475.3,286047001.2,N
1569342495.2,286047001.2,N
1569342515.0,286046998.4,N
1569342515.9,286046998.4,N
1569342535.8,286047000.5,N
1569342555.6,286047002.1,N
1569342575.4,286047001.9,N
1569342595.3,286047002.1,N
1569342615.1,286047004.3,Y
1569342635.8,286047001.8,P
1569342655.7,286047002.8,P
1569342675.5,286047000.0,N
1569342695.4,286047000.6,N
1569342715.2,286047002.5,N
1569342735.0,286047002.8,N
1569342735.9,286047002.8,N
1569342755.8,286047000.9,N
1569342775.6,286046998.6,N
1569342795.5,286047000.0,N
1569342815.3,286047000.3,N
1569342835.1,286047000.3,N
1569342855.9,286046998.3,N
1569342875.7,286046999.2,N
1569342895.5,286046997.3,N
1569342915.4,286046999.5,N
1569342935.2,286046996.8,N
1569342955.1,286046997.7,N
1569342956.0,286046997.7,N
1569342975.8,286046999.6,N
1569342995.6,286046999.1,N
1569343015.5,286046998.5,N
1569343035.3,286046998.5,N
1569343055.1,286047000.2,N
1569343075.9,286047001.2,N
1569343095.7,286047000.6,N
1569343115.6,286046999.7,N
1569343135.4,286047002.7,N
1569343155.2,286047000.0,N
1569343175.7,286047001.0,N
1569343195.5,286046999.8,N
1569343215.3,286046999.9,N
1569343235.2,286046999.9,N
1569343255.0,286046999.9,N
1569343255.9,286046999.9,N
1569343275.8,286047001.1,N
1569343295.6,286047000.9,N
1569343315.4,286046998.6,N
1569343335.3,286047001.2,N
1569343355.1,286047000.8,N
1569343375.9,286047000.6,N
1569343395.7,286047000.6,N
1569343415.5,286046998.5,N
1569343435.4,286047000.5,N
1569343455.2,286047001.2,N
1569343475.0,286046998.4,N
1569343476.0,286046998.4,N
1569343495.8,286046998.9,N
1569343515.6,286047001.2,N
1569343535.5,286046998.6,N
1569343555.3,286046999.6,N
1569343575.2,286046996.7,Y
1569343595.9,286046997.5,P
1569343615.7,286046998.0,N
1569343635.6,286046997.4,N
1569343655.4,286046998.6,N
1569343675.2,286046998.5,N
1569343695.1,286046999.7,N
1569343696.0,286046999.7,N
1569343715.8,286047000.6,N
1569343735.7,286047000.2,N
1569343755.5,286046999.9,N
1569343775.3,286046999.7,N
1569343795.2,286047002.1,N
1569343815.0,286047002.4,N
1569343815.9,286047002.4,N
1569343835.7,286047000.6,N
1569343855.6,286047000.0,N
1569343875.4,286047000.2,N
1569343895.3,286047002.5,N
1569343915.1,286047002.4,N
1569343916.0,286047002.4,N
1569343935.8,286047003.1,N
1569343955.7,286047001.4,N
1569343975.5,286047000.2,N
1569343995.3,286047000.5,N
1569344015.2,286047000.3,N
1569344035.0,286047001.4,N
1569344035.9,286047001.4,N
1569344055.8,286047002.1,N
1569344075.6,286047001.8,N
1569344095.4,286047001.8,N
1569344115.3,286047001.9,N
1569344135.1,286047002.0,N
1569344155.9,286047003.4,N
1569344175.7,286047003.3,N
1569344195.5,286047005.0,Y
1569344215.4,286047005.4,P
1569344235.2,286047005.7,N
1569344255.1,286047007.3,P
1569344256.0,286047007.3,Y
1569344275.8,286046999.8,P
1569344295.7,286047000.4,N
1569344315.5,286047000.3,N
1569344335.3,286047000.3,N
1569344355.2,286047000.9,N
1569344375.0,286047000.8,N
1569344375.9,286047000.8,N
1569344395.7,286047001.2,N
